Theta_e
314 315 318 315 314 312 313 314 314 314 315 320 322 323 323 326 328 329 328 328 329 330 331 331 327 325 324 319 319 315 321 325 327 327 326 320 326 323 324 328 328 329 328 330 336
312 314 315 318 315 313 312 312 313 313 313 314 321 322 322 323 327 328 328 328 327 329 331 327 325 324 322 321 321 319 321 323 322 322 322 320 322 319 325 327 328 330 333 333 336
312 313 314 317 318 315 314 313 313 314 314 312 319 322 322 322 323 323 325 327 329 328 329 331 330 323 324 323 323 319 322 320 322 319 319 321 321 318 324 324 323 328 331 332 334
314 312 314 314 316 317 316 314 313 314 315 313 314 320 322 322 325 325 325 324 325 329 330 328 326 325 324 326 323 325 322 321 323 319 320 321 320 321 320 321 320 318 328 332 331
313 313 312 313 313 315 317 316 314 313 314 314 312 320 322 322 322 325 325 327 329 329 329 326 326 326 325 323 324 324 323 322 322 320 320 319 320 320 319 317 315 319 330 331 332
312 312 312 312 312 312 314 316 316 313 313 314 312 319 321 323 319 321 322 327 328 328 328 326 324 323 325 325 324 323 323 323 322 323 322 321 320 319 319 317 317 325 329 330 331
309 312 311 312 312 311 312 314 316 314 313 314 314 316 320 319 320 319 323 325 328 328 327 326 325 322 323 326 322 324 325 322 322 323 323 319 322 320 318 317 317 315 314 326 329
310 309 311 310 311 312 311 312 315 316 313 314 314 316 315 317 320 323 325 326 327 328 327 326 324 322 323 322 323 325 323 328 324 322 322 322 327 322 319 317 318 317 314 312 319
310 310 310 309 309 311 312 312 313 316 313 313 315 314 313 315 319 320 323 324 325 324 325 323 322 324 323 326 327 325 329 325 325 320 322 322 325 321 317 318 317 315 315 314 312
308 309 309 308 308 309 312 312 312 315 314 314 314 312 310 317 319 319 320 323 322 320 320 322 324 327 326 329 333 331 327 326 325 323 322 323 323 319 318 318 317 316 314 315 314
308 308 309 308 308 309 311 312 313 314 314 312 313 311 308 316 318 320 321 322 320 323 326 325 326 328 326 327 327 325 325 325 322 322 322 322 322 321 319 317 317 317 317 316 316
307 308 308 309 308 309 311 311 311 313 316 311 311 310 313 317 318 319 320 320 321 324 323 325 326 321 323 324 326 326 328 327 323 321 324 323 324 322 320 320 319 319 319 319 317
307 307 308 308 309 310 311 311 311 312 314 313 311 312 310 315 315 318 319 318 320 323 323 324 321 319 321 323 325 324 324 325 327 322 322 324 324 321 318 318 318 318 318 318 318
306 307 307 308 308 309 310 310 311 311 314 315 313 312 311 313 315 315 319 318 319 322 320 322 319 320 321 322 322 326 321 322 323 325 327 319 324 319 316 315 315 315 316 316 316
306 306 306 306 306 308 308 310 311 310 315 312 313 311 310 312 313 316 317 316 318 319 319 320 319 321 323 323 321 322 319 321 321 322 324 325 325 320 316 317 316 314 313 311 312
304 304 304 306 304 306 307 308 310 312 315 314 312 314 314 310 313 316 316 313 315 317 318 317 315 317 318 318 320 318 319 320 321 324 326 320 323 320 317 315 314 313 311 309 309
305 304 304 304 304 305 306 308 311 313 309 314 314 314 313 314 315 315 316 317 317 319 321 320 319 316 318 321 319 320 322 326 326 326 325 316 321 320 315 313 313 313 311 308 306
303 304 305 304 303 304 306 309 311 309 311 312 311 313 315 313 314 314 315 315 314 313 314 318 320 318 317 321 323 322 322 323 324 324 321 317 322 319 315 315 315 311 310 308 308
303 303 304 303 303 304 306 308 309 308 308 313 312 313 314 314 313 315 314 314 314 313 313 317 318 315 315 318 318 320 325 320 319 307 316 318 316 314 313 312 312 310 308 308 308
302 303 303 303 303 304 305 307 305 307 307 311 313 314 315 314 314 315 315 312 312 313 311 314 312 316 316 317 319 322 320 323 322 325 325 318 316 318 314 314 310 308 308 308 307
301 301 301 303 303 303 305 302 304 306 307 311 314 313 313 314 313 314 313 311 311 313 311 312 313 313 317 320 319 322 319 317 321 320 322 317 315 309 311 311 310 309 307 307 306
300 301 301 302 303 301 304 303 305 306 308 310 309 310 311 312 313 313 311 312 310 312 315 312 312 309 315 315 314 316 318 318 321 324 320 316 317 308 307 309 309 307 310 307 302
300 301 302 301 303 304 303 304 304 306 309 310 311 309 308 312 314 312 312 308 310 313 313 313 316 315 316 317 315 318 317 319 315 313 319 323 323 314 313 312 311 309 305 303 301
299 301 302 301 299 302 301 304 306 305 306 310 311 308 309 312 310 312 312 310 310 312 313 312 311 310 311 309 313 316 315 316 316 319 317 321 318 316 313 313 312 312 306 303 301
297 298 300 302 301 300 302 304 304 307 307 307 310 311 310 312 310 309 309 311 310 312 312 312 312 311 313 313 314 314 314 315 316 317 316 315 316 315 311 312 311 312 308 302 299
297 299 297 297 298 299 301 303 304 304 306 307 308 311 310 310 311 311 309 312 312 311 314 312 312 310 309 312 312 315 314 314 315 314 314 314 314 311 310 310 308 306 302 298 295
297 297 295 300 300 299 300 302 304 302 305 306 306 307 310 310 309 308 309 310 311 313 314 314 311 312 315 312 311 311 311 315 314 313 313 316 312 310 311 307 301 299 296 293 291
Wind_Speed
28 27 28 26 23 21 20 19 18 17 15 11 10 9 8 8 7 5 5 4 3 6 8 12 7 14 5 4 4 3 4 2 3 2 2 5 4 4 1 2 3 1 1 3 14
30 28 28 28 26 23 21 19 19 18 17 14 11 9 8 7 6 10 14 12 9 7 5 8 6 12 4 5 4 4 3 8 3 2 2 1 2 2 3 3 2 2 1 2 24
31 30 28 27 28 25 22 20 18 18 17 17 12 10 7 4 2 7 21 19 15 9 7 4 6 3 2 2 1 2 4 4 3 2 1 1 0 2 2 3 6 4 3 6 14
30 31 28 28 25 27 24 22 19 19 17 17 15 11 9 9 7 1 8 19 17 14 5 1 0 2 0 2 1 1 3 3 2 1 0 1 1 2 3 5 3 5 4 9 9
32 30 30 28 26 25 25 23 21 18 18 16 17 14 11 3 6 4 5 6 16 14 11 4 3 3 3 2 2 3 3 2 4 2 4 2 5 5 6 9 7 4 7 11 12
31 32 30 29 27 25 24 24 22 20 19 17 18 16 6 13 6 16 6 0 12 13 9 7 5 5 3 3 4 1 3 5 3 4 3 4 3 6 6 4 4 2 7 8 10
37 32 32 29 27 26 25 23 23 21 18 17 16 16 9 12 6 10 7 6 9 16 8 9 5 4 4 1 2 1 4 6 3 3 5 5 6 8 10 3 7 9 8 9 14
38 37 32 30 28 26 25 23 21 21 19 18 13 14 6 13 9 4 10 9 10 9 11 8 5 2 2 1 0 3 3 5 2 4 5 5 9 3 7 6 10 10 9 8 10
39 38 34 32 29 26 25 23 21 21 19 16 10 7 5 13 16 19 9 8 9 6 6 6 3 2 2 3 2 3 6 5 4 4 3 5 3 5 6 7 9 8 9 10 10
40 38 35 32 32 28 25 22 19 17 16 14 3 3 5 4 10 23 13 12 5 9 3 3 2 3 3 7 14 10 5 4 6 2 2 5 12 7 8 7 9 10 9 10 11
42 38 36 36 33 31 25 15 7 5 17 7 9 3 4 7 20 15 20 11 5 4 10 4 5 16 11 4 2 2 3 5 1 0 2 5 10 13 10 9 11 12 11 11 15
44 40 35 35 35 33 32 7 17 5 9 7 3 7 2 9 5 7 22 8 8 11 12 5 21 4 5 5 7 6 8 7 1 1 1 6 20 15 13 17 17 16 17 19 16
46 42 35 32 33 34 32 28 25 12 4 11 3 7 3 6 5 12 17 7 5 11 15 13 0 12 10 5 11 13 17 10 7 2 4 2 20 22 18 16 18 16 17 20 21
47 42 38 32 24 24 19 31 24 7 4 7 9 6 6 4 4 8 21 8 3 16 9 11 8 7 5 13 9 14 7 6 8 4 10 6 14 15 10 10 9 12 14 17 15
47 44 39 34 14 15 13 26 15 7 11 13 10 7 10 9 8 8 10 3 11 8 7 6 9 14 10 16 9 10 7 11 7 6 3 14 7 5 3 19 18 13 12 10 16
40 40 37 29 21 24 19 22 16 9 14 9 12 15 10 10 2 5 6 5 2 6 2 3 1 7 9 6 13 3 4 2 3 5 10 27 10 20 15 17 6 4 7 7 6
32 37 40 37 17 28 28 10 11 16 11 9 13 17 25 13 10 12 14 14 10 10 13 7 9 3 1 6 5 8 6 4 6 7 10 5 9 23 19 8 12 8 2 4 5
29 32 33 35 32 32 29 8 14 17 8 5 12 23 22 17 15 9 17 18 13 4 8 14 8 14 7 8 6 13 17 7 8 5 4 1 9 12 14 18 18 9 7 4 4
30 29 27 23 33 32 10 13 10 11 10 10 14 20 15 13 11 13 14 22 18 15 11 11 8 1 3 6 11 5 13 15 3 2 1 5 7 10 9 8 1 9 8 6 5
21 18 19 31 38 22 12 16 4 6 15 9 14 15 18 22 14 19 19 16 11 21 2 7 2 3 2 3 5 8 3 8 6 9 8 5 6 9 5 5 6 7 8 5 5
15 5 15 32 30 8 9 9 8 7 10 15 9 13 17 16 22 20 13 5 21 16 7 5 3 2 3 8 10 6 5 5 4 5 5 2 5 4 8 8 13 10 8 7 8
9 4 24 33 9 3 11 6 7 5 13 8 4 4 14 23 24 20 22 17 12 17 21 7 4 4 7 2 3 2 9 8 2 1 1 1 6 9 9 2 4 6 4 7 12
8 2 20 24 11 5 4 6 4 6 9 10 7 5 5 17 13 15 17 7 10 17 19 11 6 4 3 2 3 5 5 5 4 3 6 2 3 8 17 17 16 16 15 13 11
3 4 4 7 4 8 7 6 7 6 6 5 6 5 6 10 2 17 13 5 13 13 12 15 5 9 12 5 6 7 10 11 6 3 5 5 3 1 6 11 10 11 9 8 11
2 3 3 11 14 10 5 7 17 6 11 14 6 11 13 7 12 7 9 5 7 13 11 12 7 4 1 1 3 4 8 16 16 16 7 7 11 13 5 5 2 2 6 9 10
4 4 2 3 9 12 12 12 18 14 12 12 14 11 10 10 16 16 12 11 10 8 13 4 3 4 2 3 4 6 11 13 18 8 5 6 6 7 8 8 8 9 8 8 10
4 2 4 10 11 15 16 14 15 21 10 11 17 5 13 15 17 9 9 11 9 17 22 14 7 5 6 4 2 6 14 14 14 12 10 11 9 8 7 9 9 10 11 10 8
Wind_Direction
239 236 233 231 228 227 226 226 225 225 227 227 225 223 223 235 265 271 259 224 244 280 316 328 330 359 354 356 11 113 67 157 199 214 266 337 33 6 322 130 72 359 158 297 172
237 235 232 230 228 226 223 223 223 222 222 220 220 219 218 221 244 243 239 247 248 260 327 16 357 350 6 353 360 81 119 208 220 194 180 21 70 311 25 353 317 327 360 107 165
231 233 229 227 226 225 222 220 218 216 216 213 212 209 206 194 358 243 249 247 241 244 246 281 331 1 9 356 329 154 200 215 240 227 248 64 57 345 94 268 228 235 227 150 173
226 227 227 225 222 224 224 219 215 212 210 209 204 203 192 165 215 204 248 222 226 222 223 148 234 359 312 223 359 282 224 222 262 242 279 243 330 312 193 233 154 266 209 174 189
225 222 224 223 221 218 221 222 215 210 207 205 200 192 171 179 240 198 21 210 210 204 199 165 170 158 199 237 348 201 276 209 295 290 283 318 234 230 241 257 280 279 178 194 203
230 223 222 220 219 217 218 217 216 210 207 204 200 192 176 225 247 245 299 4 187 188 199 178 203 207 215 218 173 262 291 280 272 248 251 228 257 147 258 244 234 212 221 224 219
229 226 220 217 216 214 215 215 212 210 205 202 198 195 229 224 208 226 217 190 181 189 189 210 218 180 166 293 215 216 313 315 221 225 243 169 287 226 249 284 275 271 256 235 231
219 217 219 214 213 214 211 212 208 206 203 198 196 189 233 219 205 168 184 178 188 195 203 203 207 155 190 305 108 197 174 250 245 212 268 132 257 271 289 315 280 280 276 259 253
214 213 215 214 212 210 210 206 206 201 198 188 176 176 235 202 206 212 187 150 138 122 160 157 119 199 117 157 175 223 241 222 285 33 276 185 247 229 330 325 294 280 284 285 269
216 213 210 212 210 206 203 200 197 194 181 158 145 121 268 192 153 201 202 174 121 118 78 111 174 203 170 182 222 226 238 241 206 297 337 275 270 267 281 285 276 283 278 280 275
215 210 209 208 206 200 187 168 153 204 181 181 175 228 127 172 175 177 185 136 112 165 199 190 205 221 207 206 254 41 258 235 85 295 346 272 281 278 287 285 277 277 277 270 267
207 202 201 203 201 195 184 188 189 141 176 206 174 205 95 156 149 167 181 162 183 201 198 182 230 157 194 189 222 229 256 253 273 275 224 309 289 286 281 278 272 266 266 261 264
198 195 195 195 192 185 182 190 184 143 149 200 175 197 173 171 180 190 178 151 162 192 194 213 210 166 183 183 216 232 236 243 254 213 269 6 280 281 274 249 266 263 257 258 252
189 187 183 184 176 177 187 185 170 165 190 174 195 222 189 142 238 182 187 164 204 203 170 222 210 159 172 221 190 238 176 184 203 194 255 151 280 274 292 270 257 270 261 260 255
180 177 175 179 155 178 177 189 166 103 218 172 164 171 161 172 144 206 182 124 185 172 166 209 165 184 200 217 171 243 166 198 209 232 313 241 251 281 311 286 279 261 271 273 260
182 180 173 171 175 185 166 171 168 197 210 169 152 164 146 194 182 115 156 68 121 182 205 204 259 167 208 186 184 122 98 134 180 225 241 249 217 273 262 253 271 266 314 323 319
178 182 175 174 187 173 173 152 208 214 146 171 168 170 181 173 168 176 177 182 180 190 210 182 211 165 226 177 157 176 151 235 232 203 242 246 193 241 263 253 249 263 343 325 12
192 180 174 175 173 172 170 204 217 200 186 167 168 180 184 163 191 182 174 197 213 188 191 211 215 197 180 211 179 198 203 215 232 221 238 59 213 244 238 263 241 228 178 294 83
181 180 176 182 167 174 174 213 204 180 152 163 154 178 186 180 172 175 190 201 198 193 175 197 223 122 195 175 177 172 223 230 266 93 177 219 276 293 253 267 268 186 150 182 108
162 167 186 178 174 175 200 216 160 229 175 170 175 177 181 186 176 186 187 203 208 198 212 176 111 206 167 114 250 205 350 212 204 223 229 241 263 244 329 244 171 157 158 164 103
138 148 184 179 163 197 218 224 207 193 243 175 168 178 193 183 194 191 192 202 189 187 164 138 101 219 188 203 197 176 210 255 242 188 178 223 252 252 273 197 178 170 149 145 79
145 179 166 166 182 189 208 207 197 160 210 253 140 165 193 192 197 199 199 197 173 163 193 164 139 184 202 119 132 277 207 187 242 187 222 219 260 351 340 293 118 114 76 47 67
158 85 162 170 198 200 169 159 228 150 187 219 211 193 179 188 194 197 205 161 155 170 175 162 196 182 310 265 188 218 197 161 117 119 220 254 251 21 42 36 58 68 45 38 35
125 147 167 182 201 193 170 189 183 212 192 170 220 228 143 170 166 192 204 155 176 177 161 156 167 199 214 201 143 198 197 192 177 190 174 213 223 12 23 35 33 69 93 79 53
141 208 173 175 197 189 167 182 198 194 217 175 225 233 179 165 180 178 170 131 184 181 176 171 202 184 292 307 153 185 179 195 206 222 197 197 188 190 192 139 136 173 68 67 58
138 157 130 207 178 200 195 183 197 192 183 203 217 211 196 168 191 188 161 177 177 187 178 180 186 126 227 185 192 234 229 215 221 226 254 166 249 211 188 158 152 134 108 78 54
122 46 118 164 176 188 205 200 197 200 211 197 195 212 237 222 199 176 175 166 162 181 190 174 143 169 216 153 145 290 216 203 214 218 207 202 218 147 158 141 108 95 83 57 42